Terminal Aerodrome Forecast
Issued by NWS Pittsburgh, PA

Current Version | Previous Version | Graphics & Text | Print | Product List | Glossary On
Versions: 1 2 3 4 5 6 7 8 9 10 11 12 13 14 15 16 17 18 19 20 21 22 23 24 25 26 27 28 29 30
000
FTUS41 KPBZ 292300
TAFPIT
TAF
KPIT 292337Z 3000/3106 21010KT 2SM -DZ BR OVC010
     FM300100 27012G24KT 2SM -SHSN OVC008
     FM300900 31012G24KT 3SM -SHSN OVC012
     FM301500 31012G24KT P6SM OVC015
     FM310300 31010KT P6SM SCT020=

USA.gov is the U.S. government's official web portal to all federal, state and local government web resources and services.